Location: Unspecified
(48.2082°N, 0.0000°E)
Time: 04:00:52
(UTC+00:00)

A-11 Canister half - Pass Details

Date: 22 August 2020
Orbit: 1514 x 1686 km, 47.2° (Epoch: 21 September)

Event Time Altitude Azimuth Distance (km) Brightness Sun altitude
Rises 22:33:18 0° 286° (WNW) 4,839 12.2 -27.2°
Reaches altitude 10° 22:38:19 10° 265° (W) 3,882 11.3 -27.6°
Maximum altitude 22:43:03 15° 236° (SW) 3,542 10.8 -27.9°
Enters shadow 22:45:29 13° 220° (SW) 3,649 10.7 -28.0°
